Weather in Ileza

Russia / Arkhangel'skaya Oblast'     61°03′20″N   43°54′28″E
temp.,
°C
wind,
m/s
gust,
m/s
humid.,
%
clouds,
%
prec.,
mm/h
press.,
hPa
HPBL,
m
29 july, thu
thu2900:00+13sw23715 0.0 100848
03:00+13wsw2671100 0.0 1007112
06:00+15w2581100 0.0 1006151
09:00+20sw3464100 0.0 1005519
12:00+18wsw4789100 2.6 1004453
15:00+16s2498100 4.9 1003209
18:00+15se2499100 1.6 1001207
21:00+15s24100100 6.7 999148
30 july, fri
fri3000:00+15wsw3109881 1.8 998407
03:00+14w4119899 1.8 997564
06:00+15w389895 0.0 999509
09:00+16wnw369298 0.1 1000643
12:00+19nw147827 0.2 1000506
15:00+22wnw256653 1.9 10001036
18:00+22nw126588 0.4 1000648
21:00+17se259184 0.4 100093
31 july, sat
sat3100:00+15s289796 1.4 999201
03:00+15sw2399100 2.2 999116
06:00+16wsw2696100 0.1 999243
09:00+18wsw3788100 1.1 998449
12:00+22wsw474688 0.3 9981732
15:00+16wsw5992100 2.0 998650
18:00+15sw399236 2.0 998680
21:00+14sw279661 3.4 999201
1 august, sun
sun100:00+13sw289891 0.1 999262
03:00+13w389796 0.1 1001431
06:00+14w379666 0.0 1003425
09:00+17wsw357825 0.0 1004641
12:00+22wsw4651100 0.1 10041841
15:00+22sw2653100 0.1 10041351
18:00+19ssw4970100 0.2 1003431
21:00+15sw3109890 2.8 1004553
2 august, mon
mon200:00+15ssw4119873 0.4 1004653
03:00+13ssw3109980 0.4 1003383
06:00+14sw4119774 0.0 1004432
09:00+19sw477036 0.0 10041012
12:00+23wsw58442 0.1 10042211
15:00+24wsw5838100 0.1 10042265
18:00+23wsw364815 0.0 10051068
21:00+16sse1170100 0.0 100511